TimePST,TemperatureF,Dew PointF,Humidity,Sea Level PressureIn,VisibilityMPH,Wind Direction,Wind SpeedMPH,Gust SpeedMPH,PrecipitationIn,Events,Conditions,WindDirDegrees,DateUTC
12:55 AM,50.0,12.0,22,30.32,10.0,SE,8.1,-,N/A,,Clear,130,2011-12-06 08:55:00
1:55 AM,46.0,10.9,24,30.32,10.0,Calm,Calm,-,N/A,,Clear,0,2011-12-06 09:55:00
2:55 AM,45.0,15.1,30,30.33,10.0,Calm,Calm,-,N/A,,Clear,0,2011-12-06 10:55:00
3:55 AM,46.0,12.0,25,30.32,10.0,East,4.6,-,N/A,,Clear,90,2011-12-06 11:55:00
4:55 AM,43.0,15.1,32,30.31,10.0,ENE,9.2,-,N/A,,Clear,70,2011-12-06 12:55:00
5:55 AM,46.9,12.9,25,30.32,10.0,ENE,11.5,-,N/A,,Clear,70,2011-12-06 13:55:00
6:55 AM,52.0,9.0,18,30.32,10.0,ENE,16.1,-,N/A,,Clear,60,2011-12-06 14:55:00
8:55 AM,59.0,9.0,14,30.35,10.0,ENE,17.3,27.6,N/A,,Clear,70,2011-12-06 16:55:00
9:55 AM,61.0,9.0,13,30.36,10.0,ENE,23.0,31.1,N/A,,Clear,70,2011-12-06 17:55:00
10:55 AM,64.0,9.0,12,30.34,10.0,ENE,20.7,26.5,N/A,,Clear,60,2011-12-06 18:55:00
11:55 AM,-9999,-9999,N/A,30.29,-9999.0,North,-9999.0,-,N/A,,Unknown,0,2011-12-06 19:55:00
12:55 PM,-9999,-9999,N/A,30.26,-9999.0,North,-9999.0,-,N/A,,Unknown,0,2011-12-06 20:55:00
1:55 PM,64.0,26.1,24,30.28,10.0,West,10.4,-,N/A,,Unknown,280,2011-12-06 21:55:00
2:55 PM,63.0,30.0,29,30.28,10.0,West,10.4,-,N/A,,Clear,280,2011-12-06 22:55:00
3:55 PM,60.1,35.1,39,30.28,10.0,West,9.2,-,N/A,,Clear,280,2011-12-06 23:55:00
4:55 PM,55.9,39.0,53,30.29,10.0,West,6.9,-,N/A,,Clear,280,2011-12-07 00:55:00
5:55 PM,53.1,39.9,61,30.30,10.0,SSE,3.5,-,N/A,,Clear,160,2011-12-07 01:55:00
6:55 PM,50.0,37.9,63,30.32,10.0,SE,3.5,-,N/A,,Clear,130,2011-12-07 02:55:00
7:55 PM,48.0,37.0,66,30.33,10.0,ENE,3.5,-,N/A,,Clear,70,2011-12-07 03:55:00
8:55 PM,45.0,36.0,71,30.34,10.0,Calm,Calm,-,N/A,,Clear,0,2011-12-07 04:55:00
9:55 PM,44.1,35.1,71,30.33,10.0,East,3.5,-,N/A,,Clear,80,2011-12-07 05:55:00
10:55 PM,41.0,30.9,67,30.32,10.0,East,3.5,-,N/A,,Clear,90,2011-12-07 06:55:00
11:55 PM,45.0,19.9,37,30.27,-9999.0,NE,4.6,-,N/A,,Clear,40,2011-12-07 07:55:00